Regional Weather Roundup
Issued by NWS

Home | Current Version | Previous Version | Graphics & Text | Print | Product List | Glossary Off
Versions: 1 2 3 4 5 6 7 8 9 10 11 12 13 14 15 16 17 18 19 20 21 22 23 24 25 26 27 28 29 30 31 32 33 34 35 36 37 38 39 40 41 42 43 44 45 46 47 48 49 50

000
ASUS43 KOAX 220602
RWRNE

WEATHER ROUNDUP FOR NEBRASKA
NATIONAL WEATHER SERVICE OMAHA NE
100 AM CDT FRI AUG 22 2014

NOTES: SATELLITE DATA IS BEING USED TO AUGMENT CLOUD COVER ABOVE
       12000 FEET.
       "FAIR" INDICATES FEW OR NO CLOUDS BELOW 12,000 FEET WITH NO
       SIGNIFICANT WEATHER AND/OR OBSTRUCTIONS TO VISIBILITY.

  * THESE STATIONS DO NOT REPORT WEATHER SUCH AS RAIN...SNOW OR FOG.

NEZ001>004-019>022-054>056-220700-
NEBRASKA PANHANDLE

CITY           SKY/WX    TMP DP  RH WIND       PRES   REMARKS
SCOTTSBLUFF    CLOUDY    66  55  67 N6        30.05R
6HR MIN TEMP:  66; 6HR MAX TEMP:  88; 6HR PCP: TRACE;

ALLIANCE       MOCLDY    67  51  56 SW7       30.04S
6HR MIN TEMP:  65; 6HR MAX TEMP:  86;

CHADRON        MOCLDY    69  50  50 W7        29.99R
6HR MIN TEMP:  69; 6HR MAX TEMP:  86;

KIMBALL        CLOUDY    68  47  48 NW7       30.10F
SIDNEY         CLOUDY    71  55  56 SW9       30.09R
6HR MIN TEMP:  64; 6HR MAX TEMP:  87;

$$

NEZ057>060-069>072-079>082-220700-
SOUTHWEST NEBRASKA

CITY           SKY/WX    TMP DP  RH WIND       PRES   REMARKS
NORTH PLATTE   CLEAR     65  61  87 NE3       29.97R
6HR MIN TEMP:  65; 6HR MAX TEMP:  86;

IMPERIAL       PTCLDY    69  63  81 E5        30.00R
6HR MIN TEMP:  68; 6HR MAX TEMP:  91;

LEXINGTON      CLEAR     71  69  94 N3        29.96R
MCCOOK         CLEAR     71  67  87 N6        29.96R
6HR MIN TEMP:  71; 6HR MAX TEMP:  94;

OGALLALA       PTCLDY    64  60  88 CALM      30.01R
$$

NEZ005>010-023>029-035>040-094-220700-
NORTH CENTRAL NEBRASKA

CITY           SKY/WX    TMP DP  RH WIND       PRES   REMARKS
VALENTINE      CLEAR     71  60  68 E6        29.97S
6HR MIN TEMP:  70; 6HR MAX TEMP:  88;

AINSWORTH      CLEAR     66  62  86 E6        29.98R
BROKEN BOW     CLEAR     69  65  86 CALM      29.96R
6HR MIN TEMP:  68; 6HR MAX TEMP:  87;

O`NEILL        CLEAR     68  65  88 N5        29.95R
ORD            MOCLDY    71  68  90 CALM      29.93R
6HR MIN TEMP:  69; 6HR MAX TEMP:  88;

THEDFORD       CLEAR     67  62  84 CALM      29.99S
$$

NEZ041-046>049-061>064-073>077-083>087-220700-
SOUTH CENTRAL NEBRASKA

CITY           SKY/WX    TMP DP  RH WIND       PRES   REMARKS
GRAND ISLAND   FAIR      72  69  90 E6        29.93R
6HR MIN TEMP:  72; 6HR MAX TEMP:  86; 6HR PCP:  0.01;

AURORA         FAIR      73  73  98 SE5       29.91F
HASTINGS       FAIR      74  66  76 SE7       29.92F
6HR MIN TEMP:  73; 6HR MAX TEMP:  85;

HEBRON         FAIR      73  64  74 NW3       29.91R
HOLDREGE       FAIR      73  69  88 CALM      29.93S
KEARNEY *      FAIR      72  70  94 SE6       29.93F
YORK           LGT RAIN  72 N/A N/A S3        29.91F
$$

NEZ011>018-030>034-042>045-220700-
NORTHEAST NEBRASKA

CITY           SKY/WX    TMP DP  RH WIND       PRES   REMARKS
NORFOLK        FAIR      76  73  91 NW6       29.89S
6HR MIN TEMP:  75; 6HR MAX TEMP:  89;

ALBION         FAIR      73  70  88 CALM      29.92R
BLAIR          CLOUDY    74  71  89 E3        29.88S
FREMONT        FAIR      75  72  92 CALM      29.86F
TEKAMAH        FAIR      75  72  90 S9        29.85F
6HR MIN TEMP:  75; 6HR MAX TEMP:  88; 6HR PCP: TRACE;

WAYNE          FAIR      74  73  97 N6        29.89F
$$

NEZ050>053-065>068-078-088>093-220700-
SOUTHEAST NEBRASKA

CITY           SKY/WX    TMP DP  RH WIND       PRES   REMARKS
LINCOLN        FAIR      79  74  84 NW6       29.87F
6HR MIN TEMP:  78; 6HR MAX TEMP:  89; 6HR PCP: TRACE;

OMAHA EPPLEY   TSTM      78  74  87 E5        29.86F
6HR MIN TEMP:  78; 6HR MAX TEMP:  92; 6HR PCP:  0.27;

BEATRICE       LGT RAIN  77  76  95 W10       29.89S
FALLS CITY     FAIR      82  71  69 SW7       29.86S
6HR MIN TEMP:  79; 6HR MAX TEMP:  95;

NEBRASKA CITY  FAIR      78  78 100 S6        29.83F
PLATTSMOUTH    CLOUDY    79  76  90 N5        29.87R
$$

NEZ044-045-051>053-067-220700-
OMAHA AREA

CITY           SKY/WX    TMP DP  RH WIND       PRES   REMARKS
OMAHA EPPLEY   TSTM      78  74  87 E5        29.86F
6HR MIN TEMP:  78; 6HR MAX TEMP:  92; 6HR PCP:  0.27;

BLAIR          CLOUDY    74  71  89 E3        29.88S
FREMONT        FAIR      75  72  92 CALM      29.86F
MILLARD        FAIR      78  75  92 CALM      29.86F
OFFUTT AFB     FAIR      76  76 100 NE7       29.86R
PLATTSMOUTH    CLOUDY    79  76  90 N5        29.87R
WAHOO          FAIR      73  69  87 W3        29.87F
$$


USA.gov is the U.S. government's official web portal to all federal, state and local government web resources and services.